Showing default

SAUDISAT 5B, 43833

Orbit data source: Space-Track

SAUDISAT 5B, 43833 is a payload satellite owned by KACST (SA) in SSO that was launched on Fri, 07 Dec 2018 UTC via a CHANG ZHENG 2D launch vehicle from the Jiuquan Satellite Launch Center, China (JSC). Payloads include a variety of satellites, spacecraft, and rockets equipped with specific instruments for various scientific and technological missions. These include communications satellites like Starlink; space stations such as the ISS; scientific satellites like the Hubble; Earth observation satellites from companies like Planet Labs, Umbra, and HawkEye 360; GPS; miniature CubeSats for education and research; and military/defense satellites.

Loading next visibility...
SAUDISAT 5B details
Identifier
43833, 2018-102C
Orbit
SSO
Last TLE update8 hours ago
Origin
Flag of SAKACST (SA / SAUD)
ManufacturerKACST
MissionOperational Civil Technology
Bus & MotorSAUDISAT, Unknown motor
Mass425 kg wet, 425 kg dry
Launch date (UTC)
2018-12-07 (6 years ago)
Launch vehicle
CHANG ZHENG 2D
Launch site
Jiuquan Satellite Launch Center, China (JSC)
Object type
Payload
Rocket body
Debris
Shape & HBRBox, 2 m
Radar Cross Section2.500 m², Large (>1 m²)

Expand to show TLE details & history

TLE from 8 hours ago
0 SAUDISAT 5B
1 43833U 18102C   24361.11542706  .00010148  00000-0  46554-3 0  9996
2 43833  97.3915  64.5195 0011042 228.5498 131.4790 15.20571467333803
Epoch: 2024-12-26T02:46Z
Definitive object data (Epoch: 2024-12-26T02:46:12.897Z)
Latitude-0.00004°
Longitude-72.13369°
Altitude512.246 km
Speed7.605 km/s
True Right ascension04h 18m 04s
True Declination0° 00' 00"
Sunlit
Object was in full shadow at TLE epoch
Visualization TLE readout
Latitude45.18427°
Longitude-79.26357°
Altitude518.615 km
Speed7.604 km/s
Apparent Right ascension01h 00m 46s
Apparent Declination6° 17' 03"
Sunlit
Object is in full shadow
Visualization observer readout
Local Sidereal Time10:13:15
Azimuth310.105° NW
Elevation-29.829°
Doppler factor1
Orbital elements
Apogee altitude508.676 km
Perigee altitude493.484 km
Semi-major axis6,879.217 km
Eccentricity0.0011042
Inclination97.3915°
RAAN64.5195°
Arg. of periapsis228.5498°
True anomaly131.57371°
Mean anomaly131.479°
Eccentric anomaly131.52636°
Mean motion3.80395 °/min
BSTAR0.00046554
Orbital period94.64 mins
Loading maneuver chart data...
Loading historical data...
Loading historical data...
Loading historical data...
Loading historical data...
Loading historical data...
Loading historical data...
Loading historical data...

SAUDISAT 5B Visibility forecast

Observer location: undefined°, undefined

Span
Click to sort rows by Start time (UTC) header in descending order
Start Az.
Max El. time (UTC)
Max El. Az.
Max El.
End time (UTC)
End Az.
6 mins2024-12-26 17:33:00.568Z1.174° NNE2024-12-26 17:36:00.568Z259.032° W40.086°2024-12-26 17:39:00.568Z205.524° SW
5 mins2024-12-27 04:11:00.568Z140.405° SSE2024-12-27 04:13:00.568Z87.64° E36.118°2024-12-27 04:16:00.568Z4.12° NNE
|